Theta_e
311 311 310 310 310 310 310 310 309 309 309 310 310 310 310 310 311 311 312 313 314 315 315 316 318 319 318 316 315 315 314 315 314 314 315 315 315 315 316 318 319 318 318 319 319 318 317 316 316 315 317 318 320 322 320 319 319 320 321 320 320 320 321 321 321 320 319 319 318 316 316 317 317 315 313 314 314 314 315 314 314 314 313 313 314 313 312 312
311 311 311 310 310 310 310 310 310 310 310 309 310 310 310 310 310 310 310 311 312 313 314 315 315 317 318 318 316 315 315 315 315 315 315 315 315 315 316 317 319 319 318 319 319 319 317 317 317 315 317 320 320 321 322 319 319 321 322 321 320 322 321 320 319 319 319 319 318 317 316 316 317 315 313 314 315 315 314 314 314 313 313 313 314 314 312 312
311 311 310 310 310 310 310 310 310 310 310 310 310 310 310 310 310 310 310 310 310 311 312 313 314 315 316 318 318 317 315 315 315 315 316 315 315 316 315 316 318 319 318 318 319 319 318 318 317 316 317 320 320 320 321 320 318 320 321 320 321 321 320 320 319 318 318 318 318 318 316 316 316 315 313 314 316 316 315 315 315 314 314 313 313 313 312 312
311 311 311 310 310 310 310 310 310 310 310 310 310 310 310 310 310 310 310 310 310 310 310 311 313 314 315 317 318 318 317 316 318 318 316 315 315 315 315 315 316 318 318 318 318 319 319 318 316 316 318 320 321 319 320 319 319 320 319 318 320 319 318 319 318 317 317 316 317 317 316 315 315 315 313 314 315 316 316 316 316 315 315 315 313 313 313 312
310 311 310 310 311 310 310 310 310 310 310 310 310 310 310 310 310 310 310 310 310 310 310 310 311 312 314 315 317 319 317 318 321 319 317 316 314 315 316 315 316 317 318 317 317 318 319 318 316 317 319 320 321 319 319 319 317 318 319 319 320 318 317 318 317 315 315 314 315 316 315 315 315 314 314 314 315 316 317 317 316 316 316 316 314 314 313 312
311 311 310 310 311 310 310 310 310 310 310 310 310 310 310 310 310 310 310 310 310 310 310 310 310 311 312 314 316 318 318 320 320 318 317 316 315 314 315 316 315 316 317 318 317 317 318 317 316 318 319 319 320 320 319 318 316 317 319 319 318 317 317 317 315 314 314 314 315 316 315 315 315 314 314 314 315 316 317 316 316 316 316 316 315 314 313 312
310 310 311 311 311 311 311 311 311 311 310 310 310 310 310 310 310 310 310 310 310 310 310 310 310 310 311 313 315 317 319 320 318 317 318 317 315 314 315 315 315 316 316 317 317 317 318 318 318 319 320 319 320 320 318 317 316 316 318 319 318 317 316 316 315 313 313 314 315 315 314 314 314 315 315 315 315 315 316 316 315 315 315 315 314 314 313 313
311 311 311 311 311 311 311 311 311 311 311 311 310 310 310 310 310 310 310 310 310 310 310 310 310 310 310 311 314 318 320 320 316 316 317 317 315 314 314 315 315 315 315 316 316 317 318 318 319 320 320 320 319 319 317 316 317 316 317 319 318 316 316 316 314 313 313 313 314 313 313 314 315 315 314 314 315 315 315 315 315 315 314 313 313 313 313 312
311 311 311 311 311 311 311 311 311 311 312 311 311 311 311 311 311 310 310 310 310 310 310 310 310 310 309 311 315 318 319 319 316 315 316 317 317 314 314 314 314 315 315 315 315 316 317 319 320 319 320 320 319 318 316 316 317 317 318 318 318 317 316 315 314 314 313 313 313 313 314 315 315 314 314 315 315 315 315 314 314 314 313 313 312 312 312 312
311 312 312 312 312 312 312 312 312 312 312 312 312 312 312 312 312 312 311 311 311 311 311 311 310 310 310 312 317 318 317 317 315 315 316 317 318 316 314 314 314 314 314 315 315 315 316 318 319 319 319 319 318 318 316 316 317 316 317 317 317 317 317 315 315 315 313 313 313 313 314 316 314 312 314 316 316 315 315 315 313 312 312 312 312 311 311 311
312 312 312 312 312 312 312 312 312 312 312 313 313 313 313 313 313 313 313 313 313 312 312 311 310 311 310 313 317 318 316 315 314 315 316 316 317 317 317 315 314 314 314 314 314 315 315 316 317 317 319 318 317 317 316 316 315 315 315 315 316 316 316 315 315 315 314 314 314 313 314 315 314 312 314 316 315 315 315 315 313 312 312 312 311 311 311 311
311 312 312 312 313 313 313 313 313 313 313 313 313 313 313 314 314 314 315 314 314 313 313 312 311 311 311 315 317 316 315 314 314 315 315 316 317 317 317 315 314 313 313 314 315 314 315 315 316 317 318 317 318 317 316 314 314 314 314 314 316 316 316 316 316 315 315 314 313 313 313 314 314 313 315 316 315 314 313 314 313 312 312 312 311 311 310 311
311 311 311 312 312 312 313 313 313 313 314 314 313 313 313 314 314 315 315 315 314 314 313 312 312 311 313 317 317 315 314 314 314 315 315 316 316 317 316 315 313 313 313 313 314 314 315 315 315 317 317 317 318 317 315 314 313 314 314 314 316 317 317 318 317 315 314 314 313 313 314 315 316 316 317 317 315 313 312 313 313 312 311 311 311 311 310 310
312 312 312 312 312 312 312 312 312 313 313 313 314 313 313 314 314 314 314 315 314 314 313 312 312 312 314 317 316 314 313 313 313 314 315 316 316 316 316 315 313 313 313 313 314 314 314 315 315 316 316 316 316 315 315 315 314 315 316 316 316 316 317 317 316 314 314 313 312 313 314 316 317 318 318 317 315 313 313 313 313 313 312 311 311 311 311 311
313 313 313 313 313 313 313 313 313 313 313 314 314 314 314 314 314 314 314 314 314 314 313 312 312 314 316 317 315 314 314 313 314 314 315 316 316 316 315 315 314 313 313 313 313 314 314 314 315 316 315 314 314 315 317 317 316 316 316 316 317 317 318 317 315 314 315 313 312 314 314 316 317 318 317 317 315 313 313 314 314 314 313 311 311 311 311 311
314 314 314 314 314 314 314 314 314 314 314 314 314 314 314 314 314 314 314 314 314 313 313 313 313 313 316 317 316 315 315 314 314 314 315 315 316 315 315 315 314 313 313 313 313 314 314 314 315 316 315 314 315 316 318 318 318 318 317 317 318 318 318 318 315 314 316 314 312 313 315 316 316 317 316 316 315 313 313 314 314 315 314 312 311 311 312 311
314 314 314 315 315 315 315 314 314 314 314 315 315 314 314 314 314 314 314 314 313 313 313 313 314 314 315 316 316 315 315 315 314 315 315 315 316 316 315 314 313 313 313 313 313 314 314 315 315 315 315 315 316 317 317 317 317 318 318 318 319 318 317 317 315 314 314 314 314 313 314 315 316 316 316 315 315 313 313 314 314 315 315 314 312 311 311 311
311 312 312 313 314 315 315 315 315 315 315 315 314 314 314 314 314 314 314 314 313 313 313 313 314 315 316 316 316 316 315 315 315 315 315 316 316 315 314 313 313 313 313 314 314 314 315 316 316 316 317 317 316 317 317 317 317 316 316 316 317 317 316 317 317 315 313 313 314 314 314 315 315 316 316 316 315 314 314 315 315 315 315 315 313 311 311 311
310 310 310 310 311 312 313 313 314 314 315 315 315 315 314 314 314 314 313 313 313 315 315 316 316 316 316 317 315 314 315 315 315 315 316 316 316 315 314 313 313 313 314 315 315 315 316 317 317 317 317 318 318 318 318 319 318 316 317 317 316 316 316 317 317 314 313 314 314 315 315 315 315 316 316 317 316 315 315 315 315 315 315 315 314 312 312 311
313 312 311 311 310 310 310 310 310 311 312 313 314 313 314 316 316 316 314 313 313 315 315 316 316 316 316 316 315 314 314 314 315 315 315 315 315 314 313 313 314 314 315 316 316 316 316 317 318 318 318 319 319 319 318 319 318 317 318 317 317 316 315 318 317 312 313 315 315 315 316 315 316 316 316 317 317 316 316 316 315 316 315 315 315 314 312 311
314 314 314 313 313 312 312 311 311 311 310 310 310 310 313 315 316 316 314 313 313 313 313 314 314 314 314 314 314 314 314 315 315 314 314 315 314 314 313 313 314 314 315 317 317 316 316 317 318 318 319 318 318 319 319 318 318 317 317 315 316 317 317 319 317 311 312 313 314 316 315 316 316 316 316 316 316 316 316 316 316 316 316 315 315 314 313 312
314 315 315 314 314 314 313 313 313 312 312 311 309 309 310 311 312 313 312 312 314 314 313 313 312 312 312 313 313 312 313 314 314 314 314 314 313 314 314 314 314 316 316 317 317 316 316 317 317 318 318 318 317 317 317 317 317 316 316 316 316 317 319 319 315 310 310 312 314 315 314 315 315 315 316 316 316 316 316 316 317 317 316 316 316 315 314 312
313 313 314 314 315 315 314 314 313 313 313 312 310 309 309 309 310 311 311 312 314 314 313 312 312 312 312 312 312 312 312 313 314 314 314 313 313 313 315 315 314 316 317 316 316 317 317 317 317 318 317 317 317 315 315 315 315 316 316 316 316 318 319 318 315 311 310 311 313 314 314 314 315 315 315 316 316 316 316 317 317 317 317 317 317 316 315 313
310 310 310 311 312 314 314 314 313 313 312 312 310 309 309 310 310 310 311 312 313 314 314 313 312 312 312 313 313 312 312 313 314 315 314 313 313 313 314 315 314 315 316 316 317 317 318 317 315 316 316 316 316 315 315 315 315 317 317 317 317 318 319 319 317 314 313 313 312 313 314 315 316 317 317 317 316 316 316 317 317 316 316 316 316 317 315 313
309 308 308 307 309 311 312 313 313 313 312 311 310 310 309 309 310 310 311 312 314 314 313 313 312 312 312 313 312 312 312 313 313 313 313 313 313 314 314 315 314 314 315 316 315 316 317 316 314 315 315 315 316 315 316 316 315 316 318 318 318 319 319 320 319 316 316 316 314 314 316 316 317 318 319 317 315 315 315 315 315 315 315 315 315 316 315 314
310 309 309 307 308 309 310 313 313 312 311 311 310 310 310 310 311 312 311 312 314 314 313 313 313 314 314 313 312 312 313 313 312 312 313 312 313 313 313 314 314 314 315 316 315 316 316 313 313 315 316 316 316 316 316 317 316 316 319 320 318 318 319 320 319 317 316 317 315 314 315 316 316 316 317 317 315 315 316 316 316 315 315 316 316 315 315 313
312 312 311 309 308 309 311 313 312 312 312 312 312 311 310 311 312 312 310 311 314 315 315 314 314 315 315 313 312 313 313 312 311 311 312 312 312 313 312 313 314 313 314 316 316 316 316 314 313 315 316 316 316 316 317 317 317 317 318 317 316 317 318 318 318 317 316 316 316 314 315 316 316 316 317 317 315 316 316 316 317 317 316 317 317 316 315 314
314 313 312 311 309 308 310 311 311 311 312 312 312 311 311 311 311 310 310 310 314 317 316 314 313 314 314 312 312 312 311 311 313 312 310 311 312 312 312 313 314 314 313 315 315 316 317 316 315 315 314 316 317 316 318 318 318 317 314 314 315 316 316 316 316 316 316 316 316 316 315 316 316 317 317 316 315 315 314 314 315 316 316 316 317 318 316 314
315 314 314 313 310 308 310 310 310 310 311 311 311 310 310 310 310 310 311 312 315 315 315 314 313 313 313 312 312 311 310 310 312 311 309 311 311 311 312 312 313 314 313 313 315 317 315 312 313 315 316 317 315 312 314 318 317 314 312 313 314 314 314 314 315 315 315 316 317 317 316 315 316 316 316 316 315 314 315 314 315 316 316 316 317 318 318 315
316 315 315 313 311 310 310 311 310 310 310 311 311 310 310 310 310 310 312 313 314 314 314 313 313 314 313 312 313 312 311 310 309 308 309 310 310 310 310 311 312 313 313 313 314 315 312 308 309 313 315 314 311 308 309 313 313 312 313 314 314 314 313 313 313 313 315 317 318 317 316 315 315 316 316 315 315 315 315 315 315 316 316 317 317 318 318 316
317 316 316 314 313 311 311 311 310 310 310 311 312 310 310 311 310 311 313 312 311 314 314 313 313 314 314 314 316 313 312 311 309 308 309 309 310 310 310 312 312 313 314 314 314 315 312 309 310 312 312 311 311 310 309 309 310 312 314 314 315 316 314 314 313 313 315 318 317 317 317 316 315 316 315 315 315 315 315 315 316 316 317 318 318 317 316 315
319 318 317 316 314 312 311 312 310 309 310 311 312 310 310 312 312 312 313 308 310 314 316 316 315 314 314 315 318 315 313 314 311 309 310 310 310 311 311 313 314 314 315 315 316 317 316 314 314 312 309 310 313 313 310 308 309 312 314 314 316 316 316 317 316 315 317 317 315 315 318 318 316 315 315 315 315 315 316 316 316 316 316 317 318 318 316 314
321 319 317 317 316 314 312 312 311 308 310 312 311 309 310 312 314 315 313 309 312 316 316 318 316 315 316 316 317 316 315 315 312 310 311 312 312 312 313 314 315 317 318 316 317 318 318 317 315 314 311 310 313 314 314 312 310 311 314 315 316 317 318 319 318 317 317 316 313 312 315 316 315 314 315 315 315 315 316 316 317 316 316 316 318 317 315 314
323 320 318 317 317 315 313 313 311 308 310 312 309 308 310 312 314 316 314 312 313 315 315 316 316 315 316 317 317 316 316 315 312 310 312 312 312 313 313 313 314 316 317 316 316 317 318 317 316 316 315 312 312 314 317 316 312 311 314 315 316 317 317 317 316 316 316 316 314 311 312 314 313 314 316 316 316 316 316 316 316 316 315 315 316 316 314 314
324 321 319 317 316 315 314 313 312 309 310 311 309 309 312 313 314 314 314 314 313 314 314 313 315 317 316 316 316 315 316 317 315 312 312 313 313 314 314 314 314 315 315 315 316 316 316 318 318 315 313 312 313 315 316 316 314 313 314 315 316 316 316 316 316 316 315 315 315 313 313 313 313 315 316 316 316 316 315 316 315 316 315 315 315 314 313 313
323 321 319 317 315 316 315 313 312 309 309 311 309 310 312 313 315 314 314 315 313 314 314 313 315 317 316 317 317 316 316 317 316 314 314 314 314 315 315 316 315 314 315 316 317 316 316 317 317 311 310 309 309 311 314 315 315 314 313 315 316 316 316 317 317 316 314 314 316 315 315 314 315 316 316 315 315 315 314 315 315 315 315 315 316 315 314 313
322 320 319 317 316 317 315 314 313 309 309 311 311 311 312 313 314 314 314 314 312 314 314 313 315 315 314 316 317 317 316 315 315 315 315 315 315 316 315 316 316 314 314 315 317 318 316 317 315 311 312 308 303 307 310 310 312 313 313 314 314 314 314 314 316 316 315 316 317 316 316 316 316 316 315 314 314 314 314 314 314 315 315 316 316 315 314 314
321 319 319 318 318 317 315 314 312 309 309 311 311 312 313 312 313 312 313 312 311 313 314 313 315 315 314 314 315 317 316 315 315 314 315 316 316 316 315 315 316 315 314 314 316 318 317 317 315 310 310 308 304 307 311 309 308 309 310 311 312 313 314 314 315 315 315 317 317 317 316 315 316 316 314 313 313 313 313 313 314 314 315 316 315 315 314 314
320 318 317 318 318 317 316 314 311 308 309 310 311 313 313 312 312 311 311 310 311 312 312 312 314 315 315 314 314 317 316 315 317 315 315 316 316 317 316 315 316 315 315 314 315 316 316 316 316 308 305 308 307 308 312 311 309 307 308 309 310 311 314 314 314 315 315 317 317 317 317 315 316 316 315 313 313 313 313 314 314 314 314 315 315 314 314 313
319 317 316 317 318 317 316 312 310 309 310 311 312 313 312 312 312 310 309 310 311 311 311 312 313 312 314 315 315 316 316 316 318 316 315 316 316 316 316 315 317 316 314 314 314 316 314 314 315 309 304 308 309 310 312 314 312 309 308 310 310 310 311 312 313 314 315 316 316 317 317 315 315 316 316 314 313 314 314 314 315 315 314 314 314 314 313 313
318 316 316 317 317 317 314 310 308 309 309 310 311 312 312 312 312 311 310 309 309 309 310 311 312 312 313 313 313 314 316 316 317 316 316 315 315 315 315 315 318 316 314 313 313 314 314 314 315 312 308 310 312 312 313 314 314 313 311 311 311 311 311 312 314 314 313 315 316 316 317 316 314 315 315 314 314 314 315 315 316 316 315 314 314 314 313 312
317 316 316 316 316 316 313 309 308 308 308 310 311 312 311 311 311 311 310 309 308 308 308 309 309 310 311 311 312 313 315 315 315 316 316 316 315 315 315 316 316 315 313 313 313 314 315 316 315 315 314 314 312 310 310 310 312 312 312 312 312 312 313 314 315 315 313 313 314 314 316 316 315 315 314 313 313 313 315 315 314 314 315 314 314 312 312 312
316 316 315 315 314 315 313 309 309 308 308 310 311 312 311 310 311 310 310 310 310 309 309 309 308 309 310 311 311 312 312 312 313 314 314 315 316 315 315 316 316 314 313 314 313 312 314 315 315 314 315 315 311 306 305 307 309 311 312 312 313 313 313 314 314 314 314 314 314 314 315 316 315 315 315 313 313 313 314 314 313 313 313 313 313 312 311 311
316 315 314 313 313 314 313 311 311 309 308 309 311 311 311 310 310 311 310 310 310 310 309 309 308 308 309 310 310 310 310 311 312 313 313 315 315 314 314 314 314 313 313 314 314 313 313 314 315 314 314 315 313 309 307 307 308 310 311 312 313 313 314 315 313 312 314 315 314 314 315 315 314 315 315 313 313 312 312 313 312 313 313 312 312 312 311 311
314 313 312 312 312 312 313 313 314 312 310 310 310 311 311 311 310 310 311 311 310 309 309 309 309 308 309 309 309 309 310 310 310 312 313 314 313 312 312 313 314 313 312 313 312 312 314 315 314 314 314 314 314 313 313 310 307 309 310 311 313 313 313 314 313 313 313 314 314 314 314 314 314 314 314 313 313 312 312 313 312 312 312 312 312 312 311 311
313 313 311 309 310 311 311 312 313 313 312 311 311 311 312 312 311 311 311 311 310 309 309 309 308 308 309 309 309 309 309 309 310 310 312 312 312 312 309 309 312 312 310 310 310 311 315 316 313 313 313 313 313 314 315 314 310 309 310 311 312 313 313 313 313 313 313 313 313 314 314 314 314 313 313 313 313 313 313 313 312 312 312 312 312 312 311 310
312 314 312 310 309 310 310 310 311 312 313 312 312 313 313 312 312 312 311 311 311 310 309 309 308 308 309 309 309 309 309 309 309 309 310 309 310 312 308 306 309 309 307 307 308 310 314 314 313 313 313 312 312 312 314 314 312 311 311 311 311 312 313 314 314 313 313 313 314 314 314 315 314 313 313 313 313 313 313 312 312 312 312 312 312 311 310 310
309 313 313 312 312 311 309 310 311 311 312 313 313 313 313 313 312 312 311 311 311 311 310 310 309 308 309 309 310 310 309 310 309 309 310 309 309 310 309 308 309 307 306 307 308 309 312 312 312 313 313 312 312 311 312 313 313 313 313 313 312 312 313 313 313 313 313 314 313 314 314 314 314 312 313 313 312 312 312 312 312 312 312 312 312 310 310 309
308 310 311 311 312 312 311 310 310 311 311 312 312 312 313 314 313 313 313 311 311 310 311 311 311 309 309 309 311 310 310 311 312 311 310 310 310 310 309 310 309 306 306 309 309 309 310 311 312 313 312 313 312 312 312 312 312 312 313 313 313 313 313 313 312 312 313 313 313 314 314 314 313 312 313 312 312 312 312 312 312 312 312 311 311 311 310 310
306 308 309 309 310 310 309 310 310 311 311 311 312 312 312 313 313 314 314 313 312 310 310 311 311 311 310 310 310 310 309 311 312 313 313 311 310 310 309 310 310 307 306 308 308 309 310 311 312 312 312 312 312 311 312 312 312 312 312 312 312 313 313 313 313 312 313 313 313 313 314 314 313 313 312 312 312 312 312 312 311 311 311 311 311 311 311 311
303 305 306 306 306 306 307 308 309 310 310 311 312 312 312 312 312 313 313 314 313 312 311 310 311 312 312 311 311 310 309 310 311 312 313 312 311 311 311 311 311 309 307 307 308 308 309 310 310 310 311 312 312 312 311 311 311 311 311 311 311 311 312 312 313 313 312 313 313 313 314 313 312 312 312 311 311 311 311 311 311 311 311 311 311 311 311 311
301 301 302 302 304 306 306 306 308 309 309 310 311 311 311 311 311 312 313 313 313 313 312 311 311 311 312 312 312 311 310 310 311 310 311 311 311 311 311 310 310 310 309 308 308 308 308 309 310 310 311 311 312 312 311 311 312 312 311 311 310 310 310 311 312 312 312 312 312 312 312 312 311 311 311 310 311 311 311 311 311 311 311 311 312 311 311 311
Wind_Speed
5 5 6 6 6 6 6 7 7 8 8 8 8 8 8 7 7 7 7 5 5 6 6 6 5 5 6 7 8 10 10 10 10 10 11 10 9 8 7 6 4 3 1 0 1 1 3 5 7 6 5 6 6 5 5 4 5 5 4 5 5 6 4 2 4 4 4 5 1 6 9 10 7 8 11 10 11 13 10 12 13 14 20 22 24 19 15 18
5 5 6 6 6 6 6 6 7 7 7 8 8 8 8 8 8 8 8 7 6 6 7 7 6 6 6 7 9 10 11 12 13 14 15 12 10 10 9 8 6 4 2 1 1 1 4 7 8 8 8 8 7 6 6 4 5 6 4 4 6 5 3 3 5 5 5 6 3 3 8 10 8 7 10 9 11 15 14 14 15 16 20 24 30 26 21 23
5 5 5 5 6 6 6 6 7 7 7 8 8 8 8 9 9 9 8 8 8 7 7 7 7 8 7 8 8 10 11 12 15 19 19 15 13 12 10 9 8 6 4 2 2 2 5 7 8 10 10 9 7 6 6 6 6 7 5 6 5 3 4 4 4 5 4 5 5 4 6 9 8 6 9 9 13 15 16 17 15 19 24 25 29 31 28 27
6 5 5 5 5 6 6 6 7 7 7 8 8 9 9 9 9 9 9 9 9 8 8 8 7 8 8 8 8 8 9 11 14 19 19 17 15 13 11 11 10 8 6 4 3 3 4 4 8 10 9 9 7 6 7 8 6 3 4 8 4 3 5 3 1 3 3 4 7 5 4 9 10 7 9 9 11 13 16 21 20 23 26 24 27 31 31 31
7 7 6 6 6 6 6 6 7 7 7 8 9 9 10 10 10 10 10 10 10 10 9 9 8 8 8 8 8 6 6 6 6 9 12 16 17 15 13 12 11 10 7 5 4 4 4 2 7 8 9 8 6 7 8 9 6 3 8 12 7 4 5 1 2 3 3 3 7 7 6 7 8 9 14 14 12 12 11 16 20 23 22 18 24 28 29 32
10 9 8 8 7 7 7 7 8 7 8 8 9 9 10 10 11 12 11 11 11 11 11 10 9 8 7 8 8 7 6 4 1 2 6 11 17 16 14 12 11 11 9 7 5 4 3 3 7 8 9 8 7 7 5 8 8 6 8 10 7 6 7 1 1 4 4 5 7 7 7 6 7 11 15 19 23 20 12 12 14 17 17 15 21 26 27 29
12 11 10 9 9 9 8 8 9 9 9 9 9 10 10 11 11 12 13 13 12 12 12 11 10 9 8 7 8 8 10 13 12 10 10 10 15 17 15 13 12 11 10 8 6 5 4 5 9 8 9 8 7 8 4 5 8 7 7 8 6 5 8 5 2 5 5 6 8 5 5 7 11 12 11 21 29 26 21 21 20 17 16 17 21 26 27 28
14 13 13 12 11 11 10 10 10 10 10 10 11 11 12 12 12 13 13 14 14 14 13 12 12 10 9 8 8 8 12 18 19 17 15 13 15 17 16 14 13 11 10 9 6 6 6 8 10 7 9 7 4 6 4 4 8 10 9 8 5 4 8 7 4 6 6 8 8 6 9 12 15 11 11 23 28 24 24 26 28 27 23 21 24 26 27 28
15 15 14 14 14 13 12 12 12 12 12 12 12 12 13 13 13 13 14 14 15 15 15 14 14 11 10 8 7 8 12 16 15 14 14 14 15 17 18 15 14 12 11 10 8 8 8 8 8 6 8 7 5 4 4 5 6 7 9 7 6 7 8 7 7 9 8 9 7 8 13 14 13 8 15 29 31 26 24 23 27 30 28 27 27 27 28 29
17 16 16 16 16 15 15 14 14 14 14 13 14 14 15 15 15 15 15 15 15 16 16 16 14 11 9 8 6 6 10 11 10 10 12 13 15 18 19 17 15 13 11 11 10 9 9 9 8 7 10 8 7 5 5 6 3 3 8 9 10 11 10 8 10 10 8 9 10 10 13 12 8 6 14 20 18 18 19 20 22 24 27 29 30 29 30 31
19 19 18 18 18 18 17 17 17 16 16 15 15 15 16 17 16 17 17 17 17 17 17 16 15 10 9 8 9 9 11 12 11 11 11 12 13 16 18 18 17 14 12 10 11 11 10 11 9 8 7 3 4 4 5 7 5 5 6 9 12 14 13 12 13 12 8 7 10 11 12 13 7 7 20 22 12 11 14 17 19 21 24 25 28 29 30 32
21 21 21 20 20 20 20 19 19 19 18 18 17 17 18 18 18 18 19 19 19 19 18 17 14 10 8 9 14 15 15 15 14 14 14 13 13 15 16 17 17 16 13 10 11 12 11 10 9 8 7 5 5 3 3 5 5 5 5 9 12 12 14 17 17 13 11 6 8 6 7 14 12 16 32 29 19 17 13 15 18 21 24 23 25 27 29 33
23 23 23 23 22 22 22 21 21 21 21 20 19 19 19 20 20 20 20 20 20 20 20 18 14 10 7 10 16 17 16 16 15 16 16 15 14 14 15 16 16 16 14 12 12 12 11 11 9 8 9 8 7 4 4 3 3 5 6 7 9 10 11 14 14 10 10 7 9 6 7 9 13 24 33 23 19 20 15 17 19 20 22 23 25 26 29 32
26 26 25 25 24 24 24 23 23 23 23 22 21 21 21 21 21 21 21 21 21 21 20 18 13 9 8 12 17 18 17 17 17 17 16 15 15 15 14 15 15 15 14 14 13 12 11 11 9 8 9 8 7 5 6 4 5 5 5 5 6 9 6 6 10 11 9 7 9 8 8 9 9 16 21 17 18 18 15 18 19 20 21 23 26 28 31 33
28 28 28 27 27 26 26 25 24 25 25 24 23 23 22 23 22 22 21 22 22 22 21 18 13 8 9 15 19 19 17 17 19 19 16 15 14 13 14 15 14 14 14 13 13 12 11 10 8 7 5 5 5 5 7 6 6 6 5 6 7 7 5 6 10 13 9 5 11 10 6 11 13 5 9 15 15 15 15 17 17 20 21 23 27 30 32 34
30 30 30 30 30 29 29 28 27 26 27 26 25 24 24 24 24 23 23 22 22 22 20 16 13 9 8 13 17 18 18 17 18 17 15 15 14 13 14 14 13 14 13 13 12 11 10 8 7 7 4 4 5 5 7 7 6 7 7 8 8 7 8 5 8 12 9 5 12 13 8 10 9 2 11 12 13 13 14 17 18 22 22 23 26 30 33 33
31 31 31 32 32 32 31 31 30 29 29 28 27 26 25 25 25 25 24 23 22 21 18 13 11 8 10 15 16 17 19 19 17 15 14 13 13 14 13 12 13 13 11 11 10 9 8 6 5 6 7 6 6 5 6 7 7 6 6 7 9 11 11 7 4 8 9 7 10 14 12 15 14 8 8 11 13 14 16 19 21 25 25 24 25 29 34 34
29 30 31 32 33 34 33 33 32 32 31 30 29 28 27 27 27 27 26 24 21 17 15 11 8 5 9 15 14 13 16 16 13 13 13 11 13 14 13 12 10 9 8 8 8 8 8 7 4 4 6 7 7 7 7 9 9 9 9 8 9 10 11 12 5 6 11 9 10 12 13 18 20 18 19 18 16 17 19 23 26 29 29 26 25 28 32 35
25 26 28 29 31 32 33 34 34 33 33 32 31 29 30 28 26 25 23 20 13 9 8 7 10 5 6 9 12 14 14 12 10 12 12 12 13 13 13 11 9 8 8 5 7 10 8 5 5 5 7 9 10 12 12 14 14 15 13 9 11 11 11 15 7 7 10 8 10 14 15 18 19 18 20 22 20 19 22 25 27 30 30 26 25 27 28 33
24 24 25 26 27 28 29 30 30 31 32 32 31 29 25 20 14 12 11 14 15 14 13 10 11 14 15 15 17 16 14 13 12 13 13 12 11 12 12 10 7 8 9 7 6 7 7 6 7 9 12 13 14 15 16 17 15 14 13 11 13 13 13 17 7 6 6 6 10 15 15 18 20 18 19 23 23 20 22 25 28 30 28 24 26 28 28 32
25 25 26 25 26 25 25 26 26 26 27 27 28 23 17 13 10 7 7 13 19 20 21 19 18 21 22 21 22 21 17 14 14 16 15 13 12 10 11 12 8 7 10 10 4 3 5 7 11 16 17 14 11 10 12 15 14 13 12 12 12 11 14 15 3 6 5 4 9 14 15 18 19 18 19 22 21 20 23 25 27 30 26 23 25 27 27 28
26 26 26 26 27 26 25 24 24 23 22 22 22 18 16 18 17 15 13 13 17 21 21 22 24 27 28 27 29 29 21 14 14 18 18 15 15 12 11 13 10 7 9 9 4 3 6 10 18 19 11 5 4 4 9 13 14 12 10 9 10 10 13 9 2 6 4 4 7 11 13 16 19 19 20 21 19 22 30 28 26 28 25 23 25 23 22 23
27 26 26 26 27 27 26 25 23 22 21 19 18 15 16 17 16 16 13 9 14 22 25 25 27 28 28 29 31 28 22 18 15 18 21 18 17 15 13 12 11 10 8 10 10 7 8 9 14 12 4 5 7 6 8 10 10 10 8 7 10 10 10 6 2 3 6 6 7 11 12 13 17 18 19 24 25 26 32 29 27 29 27 26 25 19 17 20
26 26 26 25 26 26 25 24 22 21 20 18 16 14 13 12 11 11 10 9 11 15 23 27 25 26 28 26 27 24 21 20 15 14 21 21 17 13 14 13 12 11 10 14 15 13 13 7 1 1 3 7 10 7 8 8 7 9 11 10 11 12 12 9 2 2 6 8 4 8 12 10 12 15 14 15 17 20 24 22 22 28 31 29 26 21 19 20
25 25 24 24 24 24 23 22 19 18 18 15 13 12 10 8 7 6 6 8 9 9 16 22 20 25 29 27 26 19 14 16 17 17 20 22 19 10 9 12 11 12 15 17 15 14 15 5 5 2 4 6 9 8 9 9 7 9 12 14 16 15 14 12 5 6 7 7 2 3 10 7 6 10 9 5 6 10 13 13 16 28 34 27 23 23 22 22
24 22 21 21 22 22 19 15 14 14 11 10 10 7 7 5 3 3 3 6 8 5 6 10 12 13 16 21 22 15 7 10 17 22 19 21 23 14 5 7 8 9 10 10 9 8 7 2 3 6 8 6 8 11 12 10 8 8 5 6 11 13 13 12 7 4 6 7 1 1 7 9 4 6 8 5 7 9 8 9 13 23 30 23 20 22 21 22
24 22 20 19 19 19 14 10 12 11 7 9 9 5 6 6 4 1 2 7 9 7 9 8 8 9 9 11 18 14 2 4 9 15 20 21 23 16 8 7 7 6 2 2 5 4 4 5 3 6 8 8 9 10 11 11 9 5 1 2 2 5 8 8 6 6 7 8 5 4 3 11 9 6 10 9 9 10 9 10 12 16 26 24 18 18 20 20
23 23 21 19 18 16 12 11 11 9 9 10 7 7 8 9 6 2 1 8 4 8 8 6 7 9 9 10 20 13 3 2 4 8 20 22 19 13 10 13 10 7 7 6 7 2 3 6 6 8 8 8 8 3 3 11 9 2 3 2 2 0 3 3 4 6 6 8 7 7 8 8 12 5 11 14 12 11 12 14 13 14 23 27 18 14 18 18
23 22 21 20 19 15 12 11 9 8 11 8 6 10 10 11 6 1 3 7 2 6 4 7 8 8 8 10 16 11 3 1 0 4 14 17 18 11 6 11 10 7 7 10 10 3 2 1 2 6 8 7 3 4 4 4 5 2 4 3 4 2 1 2 4 5 6 9 9 9 12 7 12 4 10 11 10 10 12 12 13 14 20 26 22 15 15 16
22 21 21 21 19 16 13 10 7 8 8 7 9 12 13 10 4 3 8 6 0 3 4 7 7 7 12 9 8 10 6 2 2 7 8 7 13 10 3 3 6 6 6 8 10 5 2 4 2 4 6 2 5 6 5 3 2 5 5 2 1 3 2 3 5 2 5 10 9 12 17 11 10 2 9 8 9 12 11 9 11 13 15 19 20 18 17 18
23 21 22 22 20 17 14 10 9 7 6 8 10 15 13 5 1 8 10 2 3 2 5 6 6 8 14 11 6 9 9 5 5 9 6 4 8 9 4 3 4 4 6 7 9 8 6 4 3 3 3 4 5 3 3 3 2 4 3 2 3 4 3 3 4 3 6 9 4 12 20 17 11 4 6 8 11 14 12 9 9 11 10 13 17 18 18 18
24 23 24 23 21 19 15 12 11 7 8 11 15 17 8 2 5 11 6 5 1 5 5 5 7 7 11 10 5 7 7 6 9 10 7 5 6 8 9 7 7 4 6 7 7 6 7 8 7 4 3 7 6 2 2 2 3 5 5 4 4 4 4 4 5 4 8 7 2 7 12 13 13 10 8 8 9 13 12 9 10 10 10 12 12 13 16 17
25 25 25 25 24 22 17 14 11 7 10 15 18 12 3 3 9 9 6 3 1 2 3 2 6 6 7 8 5 5 4 3 9 10 8 7 6 8 11 11 8 4 4 5 5 5 4 3 8 7 3 10 12 7 5 4 7 9 7 7 6 5 5 6 6 6 8 5 3 5 3 6 9 8 14 17 13 14 14 13 15 16 16 15 11 11 14 15
27 26 27 27 27 23 19 16 11 7 13 18 15 7 4 9 9 4 8 10 3 2 3 3 5 7 7 8 5 6 5 4 9 10 7 7 6 7 10 13 13 6 3 3 4 5 6 5 9 9 4 13 17 12 6 3 7 10 7 6 7 6 6 6 6 7 7 6 2 6 3 5 5 1 12 19 18 18 17 17 20 23 24 21 15 14 16 16
29 28 29 29 29 26 22 20 12 8 16 18 10 6 8 11 8 4 7 9 5 3 3 2 4 8 9 8 4 6 8 6 9 10 7 9 8 8 9 12 15 10 4 5 4 4 8 9 6 6 4 14 14 9 4 4 4 6 5 6 7 6 7 7 8 6 3 8 6 6 4 7 6 3 8 11 14 18 16 16 20 22 25 24 20 20 22 20
34 32 31 31 32 31 26 22 15 12 20 16 7 8 11 10 5 4 5 6 7 7 6 2 5 6 8 7 5 8 8 4 7 7 6 10 10 10 9 8 15 16 10 7 4 4 7 5 5 5 1 7 4 2 3 2 2 5 6 7 3 1 3 7 8 3 1 7 8 5 6 8 9 9 9 12 13 17 15 15 18 21 23 22 21 24 25 24
38 36 34 34 35 33 29 24 16 17 22 13 7 11 10 7 7 6 5 3 6 9 8 5 7 8 9 7 7 10 8 4 7 6 5 7 8 12 12 8 13 19 17 12 5 5 6 4 4 5 2 3 3 4 1 3 1 4 4 4 2 3 1 4 6 3 3 9 10 8 12 12 9 7 8 15 16 16 17 17 16 16 17 17 20 26 27 27
37 37 36 39 39 36 31 24 19 21 19 7 9 13 8 5 7 6 2 1 3 8 9 9 9 9 10 10 8 11 11 6 8 7 6 6 6 11 15 10 12 19 23 20 8 2 3 4 3 2 0 3 3 1 2 1 1 2 2 3 0 1 3 5 5 4 6 8 10 16 20 14 11 7 7 15 17 17 18 18 14 11 11 12 17 25 28 27
30 27 25 34 39 36 32 26 22 22 14 5 9 11 6 8 8 3 2 3 6 9 11 12 10 9 11 12 9 9 13 10 9 7 7 7 5 10 15 10 11 17 23 21 11 4 2 5 4 1 2 3 4 4 5 5 4 1 4 4 2 2 3 5 5 5 7 8 10 17 20 11 7 7 10 17 18 18 18 16 13 11 13 13 16 22 27 27
25 16 15 30 35 31 29 26 21 18 10 6 10 10 8 9 7 4 4 5 5 7 9 12 12 12 12 12 10 7 9 9 9 8 7 8 7 7 13 12 8 11 16 16 11 5 2 4 5 1 1 2 4 7 9 11 9 6 5 6 6 3 1 2 4 5 6 7 7 10 15 9 1 4 10 16 17 17 16 13 10 10 13 15 16 21 26 26
21 11 13 29 30 25 27 23 14 11 6 4 7 10 12 10 8 7 5 4 4 4 5 6 9 9 9 10 10 8 7 6 8 9 6 8 10 7 11 15 10 7 6 6 8 8 4 4 7 3 3 6 8 8 8 8 7 7 9 9 10 9 4 4 8 6 4 6 8 7 13 14 1 7 6 11 13 13 12 10 7 8 12 14 17 21 22 22
16 7 12 24 24 26 29 18 8 9 6 7 10 9 9 8 9 9 8 6 4 2 4 6 6 7 6 8 10 8 6 5 7 9 7 8 13 8 10 16 14 13 10 4 7 10 4 2 6 7 6 6 4 1 0 0 0 2 5 7 8 9 8 8 8 4 3 6 8 7 12 16 2 9 5 6 8 8 9 9 7 9 14 16 18 22 21 21
15 11 14 19 23 32 28 10 6 10 6 8 12 11 11 8 5 5 7 9 7 3 2 4 7 8 7 8 10 9 7 7 9 12 11 9 10 9 9 15 13 11 10 4 3 5 2 1 6 7 6 4 1 3 2 1 1 4 6 7 8 9 11 9 5 1 2 6 8 7 10 15 2 10 5 4 5 6 7 9 10 11 13 16 20 22 23 24
17 17 16 18 27 36 25 7 6 11 9 9 10 13 15 10 8 10 9 9 9 5 5 9 10 10 10 8 8 9 9 8 9 12 12 9 6 5 6 13 13 10 9 5 3 7 6 4 5 4 5 6 4 3 2 1 4 7 8 10 11 11 11 8 2 1 4 13 16 9 8 15 6 5 3 6 8 8 9 11 13 12 13 17 21 24 26 26
13 12 15 24 38 41 26 13 11 10 11 14 14 16 15 10 13 20 16 11 12 10 7 8 9 7 9 11 11 12 13 12 10 10 9 9 5 3 3 9 14 12 8 3 2 9 8 4 7 7 8 9 10 11 5 3 5 6 7 11 14 15 16 11 6 6 10 18 19 12 12 18 14 11 15 12 8 8 10 11 12 14 16 20 22 25 27 28
8 5 7 17 34 39 29 21 15 8 9 14 11 11 16 15 12 17 17 12 15 18 12 6 5 4 8 12 13 15 17 16 13 9 9 11 7 3 4 6 9 7 5 7 2 5 3 3 10 14 14 12 15 16 5 4 6 7 8 13 13 15 18 13 8 10 12 11 12 15 20 21 20 24 29 22 14 16 19 14 10 12 19 24 25 24 26 28
8 4 5 8 16 22 21 19 16 9 9 12 7 6 15 18 11 9 14 13 15 18 11 8 9 9 10 13 13 14 16 15 13 13 14 15 12 5 3 3 5 7 8 6 3 1 0 5 12 17 20 20 21 24 18 9 9 10 11 13 14 15 16 15 16 18 14 8 11 20 24 22 19 23 30 27 21 20 20 18 19 23 27 26 20 20 23 27
10 6 7 11 11 8 11 18 20 15 13 13 8 7 14 17 13 11 12 11 12 13 9 9 15 19 18 17 13 11 11 11 10 12 14 14 13 10 4 2 4 4 4 4 3 2 1 6 9 13 19 20 21 25 28 25 18 14 13 14 16 17 19 23 24 19 13 13 17 22 26 23 17 20 27 27 21 20 22 26 28 30 31 27 16 14 22 29
13 12 14 15 10 6 15 26 25 19 19 16 11 11 15 18 20 17 11 7 8 13 14 11 13 20 25 22 15 11 10 10 11 12 13 15 15 10 6 8 7 1 1 2 2 1 1 5 8 13 16 17 20 22 26 28 24 20 19 19 19 21 26 30 23 15 19 26 25 25 27 24 19 20 26 27 27 28 29 32 32 31 34 33 22 19 29 36
15 14 14 16 12 8 14 20 17 13 16 16 13 13 16 21 24 20 14 12 9 10 15 17 17 18 21 21 19 16 16 17 17 17 16 14 12 9 7 10 9 2 3 4 4 3 5 8 10 11 12 15 20 23 27 28 25 24 22 20 22 27 30 27 17 14 22 26 23 22 21 17 17 21 23 26 31 31 27 27 30 35 39 36 27 27 35 40
19 18 16 15 10 6 9 10 9 10 10 11 12 13 16 24 27 22 18 20 19 13 15 21 23 19 17 19 19 19 22 24 24 26 25 18 15 15 11 8 9 6 4 5 6 5 7 9 8 8 10 13 17 22 27 28 26 25 21 19 25 29 24 16 14 16 18 17 17 18 15 11 16 21 21 22 27 27 24 22 26 35 40 32 24 27 35 37
20 20 18 14 7 4 5 6 7 9 8 8 12 15 17 22 24 21 17 18 25 27 23 22 20 15 13 15 20 27 34 37 37 40 39 30 25 24 17 9 12 11 6 5 5 5 6 7 7 8 10 12 16 21 21 19 17 16 18 24 32 31 23 18 19 20 18 15 14 14 13 15 19 22 21 23 25 24 22 21 25 32 35 28 23 28 33 35
Wind_Direction
343 352 355 357 359 2 1 2 3 2 2 1 1 358 356 355 353 350 347 346 344 334 326 321 307 292 277 264 257 254 254 255 255 252 250 238 231 234 228 229 233 233 222 281 275 242 241 223 219 223 213 217 224 224 236 229 194 201 224 241 253 261 273 334 302 310 324 308 182 170 195 217 213 183 213 228 227 235 235 233 226 230 235 234 241 240 242 251
330 339 344 346 348 351 351 354 355 354 356 355 356 356 354 353 354 353 348 344 339 329 321 319 311 299 287 274 266 262 261 261 261 255 249 239 233 232 229 232 233 234 232 253 310 270 236 230 226 223 209 215 224 223 235 221 196 223 253 254 258 276 314 356 311 301 302 296 296 196 206 224 229 183 192 217 229 223 228 236 224 232 239 237 242 241 239 248
311 319 326 327 332 336 337 340 342 344 344 345 346 347 349 348 350 351 349 346 340 334 322 316 313 304 294 284 276 268 266 271 269 260 250 241 235 233 231 234 233 237 233 234 283 258 246 243 229 216 214 223 214 206 221 209 215 234 247 260 264 310 317 303 282 276 279 278 281 256 210 220 233 186 176 216 237 224 223 230 220 226 235 232 238 241 236 242
291 295 301 307 313 317 320 326 327 331 332 334 337 337 340 340 342 345 346 345 341 337 329 320 313 305 297 288 284 277 277 279 268 260 254 242 235 233 233 235 235 237 236 242 257 272 290 259 219 208 220 234 204 200 217 200 211 214 219 261 306 12 309 291 220 254 252 254 266 257 210 222 226 195 194 221 242 237 229 231 223 225 237 228 226 240 237 237
282 283 285 289 294 299 306 311 313 318 321 324 327 328 331 332 335 338 339 341 341 337 331 327 316 305 300 288 284 281 274 277 261 259 258 240 233 232 232 237 238 238 239 247 257 285 313 235 204 205 227 239 202 210 224 196 204 242 238 258 291 309 286 314 119 236 230 238 255 237 226 228 209 205 219 224 234 243 238 237 230 230 245 232 222 240 240 235
282 282 283 285 287 291 295 300 304 308 313 317 318 320 323 325 328 330 333 335 336 336 332 329 321 309 300 287 280 269 247 257 282 299 285 241 230 229 232 238 238 241 242 248 265 286 290 202 203 214 231 243 220 221 213 184 206 250 251 254 270 266 266 287 139 244 242 234 241 231 237 223 204 227 229 227 235 241 250 252 237 230 240 234 227 238 240 238
286 286 286 288 288 290 293 296 299 303 309 313 314 316 318 321 323 324 328 329 331 333 332 329 324 315 303 284 276 264 242 255 268 275 286 259 234 229 233 238 240 244 244 251 266 271 262 222 224 234 246 252 237 229 194 178 211 239 267 264 259 249 250 256 229 251 246 233 242 242 244 228 229 249 243 234 238 241 249 256 250 241 237 235 233 238 244 246
286 288 289 290 291 294 295 297 299 301 305 309 312 314 314 318 320 321 324 326 328 328 330 328 324 318 305 281 274 268 244 255 270 272 271 260 240 231 233 238 241 246 248 251 249 252 258 249 247 253 258 260 247 229 195 211 221 223 254 270 255 250 251 246 231 243 239 234 246 248 246 245 243 259 265 248 246 243 244 251 253 252 246 242 242 244 247 247
285 287 289 291 292 295 297 299 301 301 303 307 309 311 312 315 317 319 321 322 325 325 326 326 323 318 301 280 265 266 254 259 276 275 261 251 240 234 235 238 241 245 250 252 246 249 257 262 258 257 275 285 279 249 197 228 236 221 249 272 258 257 255 238 237 240 231 232 233 237 247 251 243 255 270 256 254 251 241 243 250 253 250 246 246 245 248 248
283 285 287 288 291 293 295 297 298 300 302 303 305 307 309 311 314 316 317 319 321 321 323 323 324 317 295 273 242 256 270 271 279 273 257 249 241 237 237 238 241 243 248 254 255 254 253 264 269 269 282 284 264 248 194 227 289 295 271 279 266 262 257 235 243 238 224 237 222 227 252 255 227 220 264 258 251 247 232 231 238 246 249 245 246 245 246 248
280 282 284 285 287 290 292 294 295 296 297 299 301 303 304 306 309 311 312 315 317 318 321 322 324 313 288 260 231 250 280 281 278 270 257 252 246 241 240 238 241 242 243 253 259 258 255 264 273 273 276 274 252 234 216 243 283 312 295 285 265 254 251 237 240 230 214 234 216 224 260 258 225 208 248 248 241 237 218 220 226 237 247 243 243 244 243 246
279 280 281 282 284 286 288 290 291 293 294 295 297 298 301 302 304 306 307 309 312 314 317 320 322 311 287 253 241 258 280 280 277 270 257 255 253 247 243 239 240 241 242 248 258 261 263 269 267 259 267 287 283 249 237 250 265 292 283 281 271 253 246 234 231 220 207 207 183 202 268 248 222 225 247 246 239 240 220 220 226 234 245 242 240 240 241 245
280 280 281 281 282 283 285 286 288 290 290 292 294 296 297 298 300 302 302 304 306 309 314 317 317 306 281 252 256 271 281 277 273 269 259 254 253 247 243 240 240 242 243 244 253 262 265 269 260 253 265 275 276 274 283 254 241 277 255 261 278 270 255 225 213 194 193 196 160 180 274 250 215 226 244 242 227 230 220 225 232 233 240 241 239 237 240 243
281 281 281 282 282 282 282 284 285 287 288 289 291 293 294 295 297 298 299 301 302 305 309 311 310 298 264 260 274 279 278 276 272 264 257 252 248 247 244 242 241 242 245 247 254 262 262 265 259 253 256 253 263 280 274 236 210 252 253 239 253 266 266 178 175 169 180 192 165 187 263 269 256 240 234 221 217 222 219 227 233 234 234 237 240 239 240 243
281 281 282 282 282 282 282 282 283 285 285 286 288 291 293 293 294 296 297 297 298 302 304 305 301 286 267 272 279 281 278 274 267 261 255 248 244 246 243 241 243 242 245 248 252 257 257 258 251 249 245 231 247 265 263 248 222 225 245 258 242 242 246 178 175 185 189 174 175 191 244 264 279 278 179 191 214 219 227 237 236 238 234 232 238 241 242 244
278 279 280 281 281 281 281 281 282 284 283 283 286 288 290 291 293 295 295 295 296 297 299 298 289 274 270 274 275 278 278 267 263 261 253 245 238 237 241 241 239 241 243 246 250 253 252 246 241 246 241 229 236 246 264 268 250 222 225 261 261 252 260 225 176 196 200 145 179 206 247 267 272 126 147 187 219 219 233 244 243 246 242 232 234 241 243 244
275 276 278 279 280 281 281 282 282 283 283 283 284 286 289 290 291 293 293 293 293 291 290 284 279 272 262 266 271 272 271 265 262 257 249 243 235 230 235 236 234 238 240 243 247 241 236 226 228 242 231 232 240 241 261 264 262 247 225 248 262 263 267 255 191 194 194 178 204 215 235 256 259 253 220 213 223 228 240 249 250 254 251 239 232 239 245 244
274 275 275 276 277 279 280 281 282 282 283 284 286 287 289 289 291 293 292 289 287 285 283 262 243 262 256 253 259 263 268 269 260 252 246 236 229 225 223 227 229 227 226 238 236 216 214 214 218 255 238 228 227 221 232 242 257 278 271 265 273 272 265 263 262 164 177 198 230 225 231 250 257 262 259 248 237 232 242 253 258 258 255 248 236 236 242 244
277 276 276 276 277 277 278 280 281 281 281 282 285 287 289 292 294 291 284 278 266 256 275 232 199 234 274 262 270 274 272 271 259 250 245 232 226 220 217 221 216 210 215 221 205 195 199 208 218 248 243 229 221 215 225 241 259 280 284 282 283 282 272 270 275 148 180 206 229 235 242 253 258 262 264 263 257 244 247 256 259 259 257 252 242 235 236 242
278 278 278 279 279 279 280 281 282 282 282 281 283 285 289 292 292 288 269 251 243 247 264 248 224 251 272 277 282 283 275 269 264 252 246 237 220 212 211 205 198 212 225 226 201 183 196 222 230 236 239 238 237 233 237 251 267 278 280 278 274 274 271 271 268 146 188 224 240 248 253 259 263 265 265 268 268 261 258 258 256 258 257 251 244 236 233 243
278 278 279 280 280 281 282 284 285 285 285 284 285 285 282 271 269 278 272 265 265 264 263 257 251 255 261 265 269 273 273 273 266 253 250 233 204 197 194 189 199 219 222 221 202 151 192 224 235 241 249 255 261 260 252 257 267 270 269 273 273 266 267 271 255 138 175 220 253 263 265 264 265 265 264 264 266 264 260 258 258 260 260 254 247 239 235 243
279 278 279 280 279 280 281 282 284 285 287 288 287 282 269 264 265 267 274 282 273 263 260 259 257 257 259 261 262 265 264 262 256 247 245 222 196 202 190 184 213 225 197 193 184 191 209 231 243 247 254 268 286 284 267 263 264 266 261 262 265 264 269 271 131 129 172 212 264 274 274 272 268 265 261 256 253 256 257 258 261 264 265 259 251 243 235 236
284 282 281 281 279 279 280 281 283 284 285 286 286 280 271 270 268 265 267 275 271 262 259 259 257 257 259 258 259 258 248 245 246 240 241 217 191 207 205 194 224 226 192 195 209 218 220 234 247 249 230 245 259 243 248 259 253 249 245 250 256 255 267 267 161 149 194 216 273 288 279 269 265 259 253 249 243 247 255 259 262 263 261 257 254 247 232 228
292 290 288 284 281 280 280 281 283 283 282 283 282 275 269 269 264 269 270 266 267 257 255 257 253 251 251 251 255 249 237 239 237 232 233 212 187 202 215 217 233 232 219 218 220 227 238 237 173 149 171 234 253 229 220 244 247 237 228 236 249 251 260 264 302 338 244 231 254 292 282 262 252 245 238 240 234 237 251 259 265 262 258 255 252 247 236 230
297 298 297 290 285 283 284 286 284 281 282 281 277 266 261 260 252 274 288 269 256 234 247 252 245 247 246 244 246 237 232 239 231 228 222 204 190 186 210 220 227 236 234 230 231 240 246 228 116 208 225 214 240 242 225 229 250 246 226 230 245 257 266 268 317 352 295 266 182 299 296 276 232 229 222 183 187 221 237 246 259 264 264 257 245 242 236 235
303 305 305 298 291 290 292 293 284 282 284 276 271 255 238 223 209 290 316 276 255 195 202 222 219 234 232 232 227 210 230 247 230 228 219 203 197 189 205 210 210 246 248 238 242 250 244 162 119 238 238 218 235 252 239 224 243 253 234 238 250 260 268 273 294 308 285 285 214 81 312 291 249 213 210 166 171 201 209 223 244 260 266 258 241 241 236 237
304 307 307 304 300 299 302 295 279 284 279 264 262 226 199 179 161 14 344 279 257 165 146 174 185 190 192 206 193 178 232 224 200 214 204 200 198 195 220 205 193 237 230 238 254 233 189 177 179 214 225 232 232 248 236 212 227 251 48 28 265 254 261 264 272 256 262 290 270 171 233 278 276 216 203 199 198 206 214 231 237 247 260 261 248 243 242 242
300 303 307 308 306 304 308 301 286 280 259 254 240 193 176 160 150 106 261 275 256 131 138 164 170 188 185 176 178 181 324 124 155 196 189 193 191 188 227 224 229 236 181 195 236 219 153 189 197 190 204 228 222 260 227 197 217 249 77 55 72 125 263 236 245 255 267 288 270 191 174 257 283 225 191 205 209 213 221 233 240 238 248 259 260 250 250 249
293 297 300 304 308 306 309 311 301 278 258 244 202 182 161 150 146 85 248 257 183 115 130 155 163 182 160 154 184 206 315 41 269 177 175 191 190 183 240 233 245 256 194 211 241 273 68 166 215 193 206 229 193 47 21 210 219 138 119 92 79 101 137 183 240 266 271 269 257 201 166 222 282 244 167 195 203 206 219 228 241 238 235 248 258 257 255 251
287 291 291 294 301 301 305 314 311 285 254 218 191 170 148 147 154 236 232 243 349 93 104 149 164 160 154 157 199 213 222 228 98 138 159 189 194 198 275 244 243 261 227 236 257 263 119 86 17 224 222 222 99 72 25 9 120 130 145 141 134 205 198 213 237 250 266 263 243 196 180 203 269 234 148 181 192 194 205 208 231 244 232 233 244 252 253 252
281 281 281 283 287 290 296 300 301 284 225 199 175 155 148 150 205 236 228 289 356 140 121 165 171 149 169 182 199 192 200 216 153 155 175 173 186 202 220 198 199 238 245 243 250 238 193 173 202 211 176 115 105 95 55 53 141 164 174 203 242 232 204 219 214 175 244 261 223 182 187 199 232 218 153 182 190 189 191 193 229 251 239 228 234 247 252 254
277 275 275 277 277 280 280 279 288 272 208 181 163 158 158 191 228 234 224 57 35 192 151 177 178 172 196 211 221 181 184 208 180 181 199 180 186 200 202 202 176 194 241 224 225 223 209 210 193 153 139 172 175 150 112 113 184 206 197 196 240 247 230 237 218 197 234 250 133 163 191 209 233 243 229 221 197 190 192 202 242 256 250 243 232 238 249 252
271 269 269 269 270 274 274 273 278 253 204 172 165 169 160 236 231 225 206 178 197 173 109 130 169 174 196 214 221 174 179 215 175 187 208 190 209 215 211 220 205 226 260 207 210 209 214 233 177 166 189 188 188 195 205 194 184 194 192 186 211 233 249 253 243 241 244 239 137 143 184 239 255 249 228 229 216 202 203 208 233 245 246 248 230 227 247 253
270 262 258 259 264 266 265 265 264 236 202 176 170 176 172 230 234 169 194 212 196 126 118 99 154 179 203 218 199 166 202 216 165 182 206 190 215 225 215 222 219 238 275 215 243 219 240 272 179 173 170 170 187 211 216 147 174 195 195 197 218 232 245 253 259 263 271 292 220 161 175 242 268 217 197 215 217 208 209 210 226 239 242 245 238 234 247 252
271 261 252 249 252 255 253 252 251 221 197 182 179 195 199 231 234 166 215 218 182 173 154 118 171 190 218 222 195 195 219 218 172 179 203 201 214 217 207 212 207 205 198 214 245 203 237 260 168 129 116 159 181 217 184 120 176 190 181 211 233 231 226 247 277 279 295 307 268 187 215 244 264 271 181 195 211 204 204 213 226 238 238 240 241 242 247 248
267 255 247 239 242 251 248 239 237 207 194 189 192 212 217 237 225 174 211 205 200 190 144 158 205 203 229 213 192 208 209 204 182 183 211 214 228 229 214 207 195 193 191 195 214 194 227 257 138 106 83 158 164 279 173 183 215 165 174 207 221 263 227 242 273 291 134 278 266 206 237 256 267 262 183 166 197 199 194 208 227 236 234 234 237 241 247 248
260 247 242 238 241 251 243 231 226 203 193 192 210 221 230 249 235 220 212 193 216 193 164 218 213 198 225 221 203 194 177 181 187 186 213 203 224 222 207 212 198 193 200 201 216 223 228 263 178 169 209 148 40 4 16 328 344 143 187 210 102 45 308 245 264 282 245 267 272 256 260 263 268 265 168 163 190 195 194 208 223 230 225 226 233 240 247 251
261 246 242 242 244 247 238 224 214 197 186 183 235 238 251 265 249 245 223 145 209 193 197 232 214 194 219 234 225 180 163 186 182 179 215 204 213 195 183 206 203 195 207 210 221 257 216 255 229 165 60 116 106 230 196 219 194 162 279 296 23 220 212 198 221 254 255 262 273 275 276 267 253 251 174 174 190 191 198 211 219 222 217 218 229 239 247 250
261 244 240 245 244 242 234 219 201 187 176 177 226 235 258 262 257 280 286 240 230 215 222 237 232 222 227 238 245 184 167 187 177 173 211 206 207 181 169 187 200 200 208 204 211 241 195 237 241 51 7 111 141 211 201 174 169 195 298 280 255 259 227 199 201 222 242 253 272 283 286 275 243 227 178 175 187 192 201 212 217 221 219 216 223 235 243 246
252 235 246 249 245 242 227 206 188 179 180 202 217 230 250 261 269 281 269 255 246 237 239 242 241 242 238 239 252 226 194 201 191 193 209 194 205 196 173 179 192 204 207 199 210 228 153 226 239 106 350 237 193 197 194 189 182 184 223 220 203 205 306 291 242 227 231 245 256 274 280 276 169 150 169 169 181 194 199 206 208 213 216 214 218 229 238 244
245 224 243 240 237 230 206 186 178 187 199 227 231 242 246 259 278 272 271 285 277 280 293 277 257 259 262 252 252 239 216 220 213 216 221 201 219 223 176 183 184 156 165 189 214 215 183 210 226 196 193 227 218 199 195 197 186 185 197 199 195 186 182 235 236 219 203 235 238 244 270 272 156 105 147 162 178 198 195 189 190 199 208 210 217 228 236 241
242 224 239 228 221 208 188 174 189 198 199 220 220 230 235 246 265 257 256 260 251 288 331 318 287 274 275 268 267 258 231 234 231 229 237 225 229 229 175 184 181 150 148 184 211 207 190 172 224 231 226 226 221 178 231 235 299 270 225 206 203 191 191 212 221 210 176 225 244 238 261 270 238 101 113 144 166 195 183 179 198 204 205 210 221 228 232 236
234 234 241 227 212 198 184 173 211 200 212 230 222 229 223 221 247 241 235 234 217 183 229 266 277 270 267 273 276 276 264 250 238 239 251 250 242 241 196 183 175 161 174 201 203 183 127 125 226 242 256 265 295 89 53 36 189 259 242 214 213 209 211 219 225 245 177 209 230 222 243 263 255 99 109 153 175 200 188 195 218 216 211 219 227 229 230 235
243 237 227 215 204 194 185 184 209 207 229 235 231 238 232 227 235 230 225 216 202 187 206 232 248 253 259 274 277 277 280 267 249 251 259 259 252 260 223 190 180 188 202 204 170 165 165 194 211 234 261 262 265 225 203 166 191 221 229 216 216 217 220 231 243 324 247 235 235 228 239 254 244 113 151 193 182 197 200 202 216 222 223 230 236 236 232 232
253 234 206 198 196 193 195 206 209 212 220 222 230 233 231 233 231 231 233 223 210 208 210 222 226 230 248 262 264 262 264 262 259 264 269 268 273 342 290 214 196 201 223 280 210 177 180 194 186 211 237 228 237 243 227 147 188 215 228 217 215 213 212 223 232 223 236 240 239 236 242 254 264 275 267 246 203 216 232 217 209 217 229 242 251 247 235 231
250 229 191 191 195 202 215 222 224 229 211 215 229 226 227 235 236 231 230 231 228 225 224 219 200 210 237 240 246 249 247 246 250 262 270 268 272 358 356 273 239 245 303 335 305 177 182 224 197 214 234 228 238 250 254 98 161 196 218 214 211 212 212 216 225 226 234 243 240 236 241 253 265 270 270 265 258 268 273 270 258 246 250 257 258 250 237 235
251 224 180 181 199 215 230 231 230 229 199 202 203 195 221 230 237 229 214 217 226 219 221 233 216 218 226 222 232 243 241 241 245 251 259 262 262 269 355 338 284 301 331 337 317 84 355 244 219 225 237 238 246 255 257 247 206 197 210 207 204 211 212 215 225 228 232 242 246 242 243 249 255 260 268 272 270 273 275 280 282 277 275 275 264 247 242 244
247 255 223 211 204 206 222 222 224 225 213 206 202 208 225 226 225 221 206 211 219 200 198 230 220 219 224 220 223 235 236 243 246 245 251 258 256 254 281 318 268 288 333 348 360 48 225 250 243 245 249 249 252 255 256 256 244 228 227 222 216 213 210 219 227 227 227 237 248 250 250 252 252 253 262 268 271 273 274 278 281 280 281 284 275 252 255 258
249 268 268 254 239 209 216 217 215 219 218 214 215 218 226 229 227 224 206 196 218 204 202 220 216 215 223 224 223 227 224 226 234 234 232 237 244 248 260 266 260 247 72 295 326 75 231 267 256 257 265 262 258 258 258 260 260 255 253 250 247 241 234 234 232 218 225 236 242 249 255 259 258 254 259 267 273 276 277 278 279 279 279 281 278 272 274 275
253 265 280 281 277 277 262 239 224 226 220 216 221 217 221 231 232 231 215 195 203 201 201 220 227 217 218 221 220 224 224 222 230 236 228 221 229 235 233 240 246 202 140 229 251 194 206 236 241 250 264 258 253 255 255 257 260 259 259 260 259 255 249 244 234 214 226 237 239 246 256 263 261 258 261 267 271 273 275 275 275 276 278 280 281 280 280 281
262 270 284 293 284 269 284 270 241 243 231 216 224 221 222 229 229 234 231 215 212 204 191 211 225 225 224 224 222 227 229 227 231 237 234 223 214 219 217 202 208 207 177 203 214 183 202 233 237 237 250 248 244 246 248 251 254 255 257 256 251 249 248 242 233 225 227 233 239 245 251 254 255 259 263 266 267 266 267 270 273 275 277 281 283 279 277 279
273 281 287 297 293 214 243 264 244 249 245 231 235 231 230 234 232 236 243 229 225 226 217 212 219 226 228 225 224 228 229 230 234 238 240 238 232 232 233 205 188 194 184 191 210 191 195 225 230 224 241 248 243 244 249 252 252 245 236 234 237 243 250 250 245 237 227 224 232 236 235 240 249 256 262 266 265 261 258 262 268 273 277 282 282 277 276 279